DMSP 5D-2 F14 DEB, 63154

Orbit data source: Space-Track

DMSP 5D-2 F14 DEB, 63154 is space debris in SSO originally from a launch on Fri, 04 Apr 1997 UTC launched from the Air Force Western Test Range (AFWTR). Debris objects in space refer to the collection of defunct objects orbiting the Earth. Examples of debris include non-operational satellites, rocket bodies, and fragments generated from explosions, collisions, or faulty payload assembly.

Loading next visibility...
Identifier
63154, 1997-012U
Orbit
SSO
Country
Flag of USUS
Related business
Manufacturer
LMT/EW
Mission
Spacecraft
Bus & Motor
Unknown
Mass
Unknown
Launch date (UTC)
1997-04-04 (29 years ago)
Launch vehicle
Unknown
Launch site
Air Force Western Test Range (AFWTR)
Object type
Payload
Rocket body
Debris
Shape & HBR
Unknown shape, 0.1 m
Radar Cross Section
Small (<0.1 m²)

Expand to show TLE details & history
Last TLE update: 2 days ago

TLE from 2 days ago
0 DMSP 5D-2 F14 DEB
1 63154U 97012U   26170.08743791  .00002096  00000-0  87297-3 0  9996
2 63154  98.7682 225.5900 0035922  50.8553 309.5811 14.27051505 69418
Epoch: 2026-06-19T02:05Z
TLE epoch observation values (Epoch: 2026-06-19T02:05:54.635Z)
Latitude
0.00003°
Longitude
-73.2091°
Altitude
788.144 km
Speed
7.468 km/s
True Right ascension
15h 02m 21s
True Declination
0° 00' 00"
Sunlit
Object was in full shadow at epoch
Visualization orbit readout
Latitude
Unknown
Longitude
Unknown
Altitude
Unknown
Speed
Unknown
Apparent Right ascension
Unknown
Apparent Declination
Unknown
Sunlit
N/A
Visualization observer readout
Local Sidereal Time
07:12:17
Azimuth
Unknown
Elevation
Unknown
Doppler factor
Unknown
Orbital elements
Apogee altitude
824.536 km
Perigee altitude
772.975 km
Semi-major axis
7,176.892 km
Eccentricity
0.00359
Inclination
98.7682°
RAAN
225.59°
Arg. of periapsis
50.8553°
True anomaly
309.26293°
Mean anomaly
309.5811°
Eccentric anomaly
309.42211°
Mean motion
3.56976 °/min
Orbital period
100.85 mins
BSTAR
0.00087297
Loading maneuver chart data...
Computing Atmospheric mass density...

Documentation

Showing up to 5 results
|